Regional Weather Roundup
Issued by NWS Charleston, SC

Current Version | Previous Version | Graphics & Text | Print | Product List | Glossary On
Versions: 1 2 3 4 5 6 7 8 9 10 11 12 13 14 15 16 17 18 19 20 21 22 23 24 25 26 27 28 29 30 31 32 33 34 35 36 37 38 39 40 41 42 43 44 45 46 47 48 49 50
000 ASUS42 KCHS 281512 RWRCHS REGIONAL WEATHER ROUNDUP NATIONAL WEATHER SERVICE CHARLESTON SC 1100 AM EDT SUN MAY 28 2017 NOTE: "FAIR" INDICATES FEW OR NO CLOUDS BELOW 12,000 FEET WITH NO SIGNIFICANT WEATHER AND/OR OBSTRUCTIONS TO VISIBILITY. NOT ALL STATIONS ARE QUALITY CONTROLLED. USE DATA WITH CAUTION... ESPECIALLY DEWPOINT OBSERVATIONS. SCZ027-030-031-034>040-042>050-281600- ...SOUTHEAST SOUTH CAROLINA... CITY SKY/WX TMP DP RH WIND PRES REMARKS N CHARLESTON CLOUDY 84 69 60 W9 29.93F WATERFRONT PRK N/A 84 71 65 W8 29.94R JOHNS ISLAND FAIR 84 72 65 SW8G18 29.95F PINOPOLIS N/A 81 72 74 W16 29.86F MONCKS CORNER FAIR 82 68 61 W7 29.92F SUMMERVILLE FAIR 82 68 61 SW8 29.94F BEAUFORT MCAS MOSUNNY 84 71 65 SW13 29.96F BEAUFORT ARPT FAIR 84 70 61 W10 29.96F HAZE HILTON HEAD IS SUNNY 84 70 61 W12 29.97F WALTERBORO PTSUNNY 81 70 69 W9 29.96S ALLENDALE FAIR 82 72 69 VRB6G12 29.94S ...SOUTHERN MIDLANDS AND PEE DEE... CITY SKY/WX TMP DP RH WIND PRES REMARKS GEORGETOWN FAIR 84 70 61 W12 29.93F KINGSTREE FAIR 82 68 61 W8 29.90F ORANGEBURG CLOUDY 83 68 60 W7 29.91F BARNWELL FAIR 82 73 74 SW7 29.94R AIKEN FAIR 77 64 65 SW12G20 29.95F MANNING FAIR 82 63 51 SW17G24 29.89F COLUMBIA CLOUDY 81 64 56 SW8 29.89R SUMTER MOSUNNY 86 64 47 W13 29.86F FLORENCE SUNNY 85 65 51 W14G24 29.89F MYRTLE BEACH SUNNY 84 72 65 W20 29.93R N MYRTLE BEACH SUNNY 85 70 60 W9G20 29.91R $$ GAZ063-065-086>088-099>101-113>116-118-119-134>141-150-281600- ...SOUTHEAST GEORGIA... CITY SKY/WX TMP DP RH WIND PRES REMARKS SAVANNAH ARPT PTSUNNY 89 68 49 W17 29.98S HX 93 HUNTER AAF SUNNY 87 75 67 W9 29.95F HX 96 FORT STEWART MOSUNNY 86 71 59 W14 29.97S HX 91 STATESBORO CLOUDY 83 72 68 W10G16 29.98S SYLVANIA CLOUDY 82 74 74 W3 29.99R CLAXTON FAIR 85 78 78 SW9G16 29.99R HX 96 ...CSRA...CENTRAL AND FAR SOUTHEAST GEORGIA... CITY SKY/WX TMP DP RH WIND PRES REMARKS THOMSON PTSUNNY 76 67 73 W6 29.99F AUGUSTA-BUSH PTSUNNY 84 68 58 SW7 29.92S AUGUSTA-DANIEL PTSUNNY 81 64 56 SW3 29.93F SWAINSBORO FAIR 79 72 78 W5 29.98F VIDALIA PTSUNNY 82 73 74 W9 30.00F EASTMAN CLOUDY 81 64 57 W7 30.03F HAZLEHURST PTSUNNY 84 75 73 W5 30.00F HX 92 ALMA MOSUNNY 83 72 69 W9 30.02S WAYCROSS CLOUDY 82 76 83 W9 30.03F JESUP FAIR 86 70 58 NW17 30.00S HX 90 BAXLEY PTSUNNY 84 77 79 W10G16 30.01S HX 94 BRUNSWICK SUNNY 86 73 66 W15G21 30.01S HX 93 SAINT SIMONS SUNNY 86 70 58 W12 30.00S HX 90 $$ SCZ027-028-034-036>038-045-046-048>050-GAZ119-141-281600- ...LAKE AND SUPPLEMENTAL COASTAL OBSERVATIONS... STATION/POSITION TIME TEMP WIND PRES WAVE SWELL AIR SEA DIR/SP/G HT/PER HT/PER/DIR (UTC) (F) (DEG/KT/KT) (MB) (FT/S) (FT/S/D) WINYAH BAY NOT AVBL LAKE MURRAY 1420 77 230/ 2/ 5 1010.8F ACE BASIN NERRS 1345 81 240/ 4 1015.0 FORT PULASKI 1448 82 290/ 12/ 14 1015.3S SAPELO ISLAND 1400 82 270/ 9 1016.0 $$ ANZ835-935-AMZ111-154-330-350-352-354-370-450-454-472-281600- ...C-MAN AND BUOY OBSERVATIONS... STATION/POSITION TIME TEMP WIND PRES WAVE SWELL AIR SEA DIR/SP/G HT/PER HT/PER/DIR (UTC) (F) (DEG/KT/KT) (MB) (FT/S) (FT/S/D) BUOY 41004 1450 76 75 250/ 10/ 12 1014.1R 3/ 5 2/130/ 8 BUOY 41008 1350 76 78 260/ 10/ 12 1015.4 2/ 4 2/ 80/ 8 FOLLY BEACH CMAN 1400 82 240/ 9/ 13 1014.8R CAPERS NEARSHORE 1408 81 77 240/ 12/ 16 1013.8R FRIPP NEARSHORE 1408 78 78 250/ 10/ 12 1014.6R STATION/POSITION TIME TEMP WIND PRES WAVE SWELL AIR SEA DIR/SP/G HT/PER HT/PER/DIR (UTC) (F) (DEG/KT/KT) (MB) (FT/S) (FT/S/D) 5E ST. MARYS GA 1430 79 N/A 2/ 7 FRYING PAN BUOY 1450 76 75 240/ 14/ 17 1013.1R 3/ 5 2/130/ 8 BUOY 41025 1450 76 77 230/ 12/ 14 1011.7R 3/ 6 2/210/ 6 CAPE LOOKOUT NC 1400 78 230/ 10/ 13 1011.4F BUOY 41002 1350 76 77 220/ 16/ 17 1014.5 3/ 5 2/140/ 7 BUOY 41010 1450 80 79 220/ 6/ 8 1016.8R 2/ 8 2/ 90/ 8 ST AUGUSTINE FL 1500 80 76 280/ 7/ 10 1017.8R $$

USA.gov is the U.S. government's official web portal to all federal, state and local government web resources and services.